[ ตารางข้อมูล ] [ Min-Max ] [ วันนี้2 ] [ วันนี้4 ] [ เทียบ-A 3วัน ] [ เทียบ-B 4วัน ]   

วันนี้2   [ ◀ ช่วงเก่ากว่า ] [ ช่วงที่ 45 ] [ ช่วงใหม่กว่า ▶ ] [ ล่าสุด ]    [ 3 ชั่วโมง ] [ 6 ชั่วโมง ] [ 12 ชั่วโมง ] [ 24 ชั่วโมง ]   วันนี้2

อุณภูมิในตู้ Knockdown4529  ราย 6 ชั่วโมง  ที่วัดได้ ในช่วงวันเวลา 21/08/2026 (18:24) ถึง 22/08/2026 (00:24) 
ความชื้นในตู้ Knockdown4529  ราย 6 ชั่วโมง  ที่วัดได้ ในช่วงวันเวลา 21/08/2026 (18:24) ถึง 22/08/2026 (00:24) 
การใช้ไฟฟ้าในตู้ Knockdown4529  ราย 6 ชั่วโมง  ที่วัดได้ ในช่วงวันเวลา 21/08/2026 (18:24) ถึง 22/08/2026 (00:24) 

  DS18B20SHTC3PZEM-004TWiFi 
IDDate d/m/Y & Timedata1
สูง
data2
ต่ำ
data3
นอก
temp
pcb
hum
pcb
VoltAmpWattrssiTime
 14802  22/08/2026 00:20:37  31.1  31.2  28.9  32.0  67.2  223.4  0.04  4.6  -77  00:20 
 14801  22/08/2026 00:15:54  31.1  31.2  28.9  32.1  67.2  222.9  0.04  4.6  -76  00:15 
 14800  22/08/2026 00:11:11  31.1  31.2  29.0  32.1  67.2  225.1  0.04  4.5  -77  00:11 
 14799  22/08/2026 00:06:27  31.1  31.2  28.9  32.1  67.3  223.1  0.04  4.6  -77  00:06 
 14798  22/08/2026 00:01:44  31.2  31.3  29.0  32.2  67.3  223.8  0.04  4.6  -76  00:01 
 14797  21/08/2026 23:57:01  31.2  31.3  29.0  32.1  67.2  223.4  0.04  4.6  -75  23:57 
 14796  21/08/2026 23:52:17  31.2  31.3  28.9  32.1  67.2  224.0  0.04  4.6  -75  23:52 
 14795  21/08/2026 23:47:34  31.3  31.3  28.7  32.2  67.1  223.3  0.04  4.6  -74  23:47 
 14794  21/08/2026 23:42:51  31.3  31.4  28.8  32.2  67.1  223.7  0.04  4.6  -76  23:42 
 14793  21/08/2026 23:38:07  31.3  31.4  28.9  32.3  67.1  223.6  0.04  4.6  -76  23:38 
 14792  21/08/2026 23:33:24  31.3  31.4  28.9  32.1  67.2  223.5  0.04  4.6  -74  23:33 
 14791  21/08/2026 23:28:41  31.4  31.4  28.8  32.4  67.0  224.1  0.04  4.6  -74  23:28 
 14790  21/08/2026 23:23:57  31.4  31.4  28.8  32.2  67.1  224.8  0.04  4.6  -72  23:23 
 14789  21/08/2026 23:19:14  31.4  31.4  28.8  32.2  67.0  223.3  0.04  4.6  -75  23:19 
 14788  21/08/2026 23:14:30  31.4  31.5  28.9  32.4  67.1  224.5  0.04  4.5  -76  23:14 
 14787  21/08/2026 23:09:47  31.4  31.5  28.9  32.4  67.0  224.2  0.04  4.5  -77  23:09 
 14786  21/08/2026 23:05:03  31.4  31.6  28.9  32.3  67.0  224.5  0.04  4.6  -78  23:05 
 14785  21/08/2026 23:00:21  31.4  31.6  29.0  32.4  67.2  226.3  0.04  4.6  -75  23:00 
 14784  21/08/2026 22:55:38  31.4  31.6  29.0  32.4  67.1  226.2  0.04  4.6  -76  22:55 
 14783  21/08/2026 22:50:54  31.4  31.6  29.1  32.5  67.1  226.9  0.04  4.6  -77  22:50 
 14782  21/08/2026 22:46:10  31.5  31.6  29.0  32.4  67.2  227.8  0.04  4.6  -76  22:46 
 14781  21/08/2026 22:41:27  31.5  31.6  29.1  32.5  67.2  226.2  0.04  4.6  -77  22:41 
 14780  21/08/2026 22:36:43  31.5  31.7  29.2  32.5  67.0  225.5  0.04  4.5  -77  22:36 
 14779  21/08/2026 22:32:00  31.6  31.7  29.4  32.5  67.1  225.5  0.04  4.6  -77  22:32 

Data every 5 minute.


ใช้เวลาประมวลผล 0.03880 วินาที